星链-5096 (STARLINK-5096 )

导读

STARLINK-5096是美国太空探索技术公司(SpaceX)星链(Starlink)互联网星座的卫星,于2022年10月5日发射,归属于美国,是星链星座组网部署中的一环,承担为全球提供低延迟、高速宽带互联网服务的任务,依托低轨轨道运行,支撑星链系统全球覆盖的组网目标。

基本信息
目录编号:
54006
目录名称:
STARLINK-5096
国际标识:
2022-125AU
轨道中心:
EARTH
卫星名称:
星链-5096
卫星全名:
星链-5096 (STARLINK-5096 )
卫星状态:
在轨 (已飞行1438 天)
发射日期:
2022-10-05 UTC
国别 :
美国 (US)
星等 :
--
该卫星已列入 空间交会检测服务 Space Conjunction Data Service (SCDS) ,当前飞行风险评估等级: 无高风险
轨道信息
数据来源 国际轨道数据
星历时间: 2026-09-12T06:39:04+0800
11小时前
查看轨道信息
半长轴: 6848.905km
偏心率: 0.0001259
轨道倾角: 53.161°
近地点辐角 82.950°
升交点赤经 88.786°
平近点角 277.164°
近地点: 469.905km
远地点: 471.631km
周期: 94.014分钟
每日圈数: 15.316908
详细信息
固有亮度:
5
最大亮度:
2.5
卫星平台:
Starlink v1.5
覆盖范围:
全球
运营商:
太空探索技术公司
运营商所在国:
美国
制造商(研发单位):
太空探索技术公司
制造商所在国:
美国
使用方式:
暂无
卫星简介
星链(Starlink)计划是由太空探索技术公司(SpaceX)提出的一个巨型低轨卫星互联网星座项目,计划在2019年至2024年间在太空搭建由约1.2万颗卫星组成的“星链”网络,其中1584颗将部署在地球上空550千米处的近地轨道,并从2020年开始工作。该卫星仍在工作。
2D轨道图
3D轨道图
轨道高度分析图
轨道倾角分析图
轨道综合分析图
查看轨道综合分析图
交会数据列表
事件ID 空间交会对象 最接近时刻(TCA) 交会距离 交会风险概率(CRP) 交会风险指数(CRI) 操作
CDM_260914-063305-400606-383321
HERMES 4 (63833)
2026-09-14T
06:33:51+0000
0.279 km
中距离
4.741936E-4 高风险 0.89
CDM_260914-164205-256405-400621
2026-09-14T
16:42:24+0000
0.900 km
远距离
2.385216E-5 中风险 0.63
CDM_260914-080505-256405-400621
2026-09-14T
08:05:36+0000
1.206 km
极远距离
8.695387E-6 低风险 0.54
CDM_260906-190605-400605-717325
OBJECT H (57173)
2026-09-06T
19:06:09+0000
1.683 km
极远距离
4.602205E-6 低风险 0.48
CDM_260913-194605-400606-810221
2026-09-13T
19:46:53+0000
1.885 km
极远距离
3.20465E-6 低风险 0.45
CDM_260914-112905-400606-240021
XCUBE-1 (62400)
2026-09-14T
11:29:40+0000
1.870 km
极远距离
2.29282E-6 低风险 0.42
CDM_260906-013300-346205-400623
2026-09-06T
01:33:54+0000
1.800 km
极远距离
1.621918E-6 低风险 0.39
CDM_260911-203405-319405-400621
2026-09-11T
20:34:19+0000
2.704 km
极远距离
1.488311E-6 低风险 0.38
CDM_260914-054605-400606-383321
HERMES 4 (63833)
2026-09-14T
05:46:52+0000
2.471 km
极远距离
1.411818E-6 低风险 0.38
CDM_260914-093905-256405-400621
2026-09-14T
09:39:33+0000
2.758 km
极远距离
1.004623E-6 低风险 0.35
与全量物体交会距离演化趋势
与全量物体交会风险概率演化趋势